Regional Weather Roundup
Issued by NWS

Home | Current Version | Previous Version | Graphics & Text | Print | Product List | Glossary On
Versions: 1 2 3 4 5 6 7 8 9 10 11 12 13 14 15 16 17 18 19 20 21 22 23 24 25 26 27 28 29 30 31 32 33 34 35 36 37 38 39 40 41 42 43 44 45 46 47 48 49 50
000
ASUS45 KCYS 181010
RWRWY

WYOMING REGIONAL WEATHER ROUNDUP
NATIONAL WEATHER SERVICE CHEYENNE WY
300 AM MST THU DEC 18 2014

NOTE:  "FAIR" INDICATES FEW OR NO CLOUDS BELOW 12,000 FEET
WITH NO SIGNIFICANT WEATHER AND/OR OBSTRUCTIONS TO VISIBILITY.

WYZ001-181100-
YELLOWSTONE NATIONAL PARK

CITY           SKY/WX    TMP DP  RH WIND       PRES   REMARKS
LK YELLOWSTONE   N/A     21  16  81 CALM      30.01S
W YELLOWSTONE  NOT AVBL

$$
WYZ002>013-054>058-071-098>099-181100-
NORTHERN WYOMING

CITY           SKY/WX    TMP DP  RH WIND       PRES   REMARKS
JACKSON        CLOUDY    16  14  93 N5        30.03R WCI   9
CODY           FAIR      25  19  80 S6        29.94S WCI  18
GREYBULL       FAIR       9   6  88 SW7       30.03R WCI  -2
WORLAND        FAIR      -2  -6  83 CALM      30.02R
SHERIDAN       FAIR      14   9  80 CALM      29.95R
BUFFALO        FAIR      23  16  74 W10       29.95R WCI  12
GILLETTE       FAIR      25  19  78 SW8       29.94S WCI  16
HULETT           N/A    N/A N/A N/A MISG        N/A
NEWCASTLE      FAIR      10  10 100 CALM      29.99S FOG

$$
WYZ014>020-022>026-101>103-181100-
CENTRAL WYOMING

CITY           SKY/WX    TMP DP  RH WIND       PRES   REMARKS
BIG PINEY      FAIR      10   6  84 NW3       30.04R
PINEDALE       PTSUNNY   16  14  93 NW5       30.05R WCI   9
DUBOIS         CLOUDY    25  16  68 NW9       29.98R WCI  15
LANDER         FAIR       0  -4  83 NE3       29.99R FOG
RIVERTON       HAZE      10   5  80 CALM      30.00R VSB 1/4
CASPER         FAIR      23  16  74 SW14      29.95S WCI  11
DOUGLAS        FAIR       9   6  88 CALM      29.98S

$$
WYZ021-027>030-104>119-181100-
SOUTHERN WYOMING

CITY           SKY/WX    TMP DP  RH WIND       PRES   REMARKS
EVANSTON       FAIR      22  19  89 SW6       30.04R WCI  14
KEMMERER       FAIR      21  18  86 CALM      30.02S
FORT BRIDGER   FAIR      26  23  89 SW9       30.06R WCI  16
ROCK SPRINGS   FAIR      20  15  81 SW10      30.03R WCI   9
DIXON          CLOUDY   N/A N/A N/A E6        30.10R
RAWLINS        MOCLDY    18  13  80 W8        30.02R WCI   8
SARATOGA       CLOUDY    14  10  85 SE5       30.03R WCI   6
LARAMIE        FAIR      11   8  88 NE7       29.96S WCI   0
CHEYENNE       FAIR      23  16  74 W7        29.97R WCI  15
TORRINGTON     CLOUDY     9   6  88 NW5       30.00S FOG     WCI   1
PINE BLUFFS    PTSUNNY   27  21  80 CALM      29.99S

$$



USA.gov is the U.S. government's official web portal to all federal, state and local government web resources and services.